Wind_Speed
8 7 7 11 5 5 4 5 6 2 2 3 4 4 3 2 2 6 5 4 8 7 6 12 14 12 10 7 4 2 3 5 2 4 5 6 6 6 8 9 11 12 10 11 11 12 11 13 11
6 3 2 12 8 8 2 2 3 3 4 1 3 1 1 3 4 4 5 6 6 6 4 7 17 13 10 8 4 2 4 7 5 6 6 7 5 6 7 9 9 9 11 11 11 11 12 11 12
4 4 5 6 9 10 6 5 7 6 5 2 1 1 2 2 3 4 5 6 5 9 5 3 11 12 10 7 3 5 3 7 8 8 8 8 6 7 7 9 9 10 12 11 11 11 12 12 13
3 5 6 11 19 7 9 4 6 6 5 3 1 1 2 1 0 2 6 4 4 9 8 5 15 11 9 4 4 6 1 4 10 10 10 9 6 7 8 10 10 11 12 11 11 11 13 14 13
6 7 4 3 12 8 4 11 10 9 7 0 2 2 3 1 2 3 3 4 7 10 8 4 16 13 8 4 4 6 5 7 12 12 10 9 6 7 9 11 12 13 12 12 11 12 15 14 15
9 10 8 9 20 8 1 1 3 6 3 0 1 3 3 1 2 2 6 6 8 9 10 11 10 9 8 6 5 7 7 10 10 9 9 9 7 8 10 10 12 14 13 12 10 14 16 14 12
9 2 3 10 18 11 11 7 4 2 5 2 2 2 5 3 4 2 4 6 7 6 6 5 8 9 8 7 7 7 9 9 9 10 9 11 10 10 12 10 13 14 14 12 11 16 15 12 14
17 7 10 2 16 17 10 10 5 3 5 0 3 3 5 5 3 2 2 4 4 3 4 5 3 6 7 7 7 8 8 7 7 9 11 10 15 16 12 13 15 14 14 12 14 16 16 17 17
16 20 16 16 9 9 2 7 9 7 3 2 4 6 4 4 3 5 5 3 3 5 5 5 6 6 7 6 9 13 12 8 8 9 12 10 10 19 15 14 16 16 14 13 15 15 16 15 16
5 15 13 13 11 14 3 10 14 6 3 4 7 6 7 4 3 4 5 7 6 7 9 11 8 6 7 10 12 11 10 11 10 10 16 13 13 17 17 16 18 16 14 13 16 13 14 14 16
2 10 9 8 8 11 6 13 6 9 1 1 4 4 9 4 3 3 6 9 9 8 9 10 11 4 2 6 14 12 13 12 15 16 18 16 19 22 21 19 18 15 16 15 13 16 13 11 14
12 10 9 6 7 6 3 4 10 6 8 6 3 3 5 7 2 2 4 8 8 11 10 8 10 7 9 4 8 10 15 11 15 17 20 20 26 26 22 21 20 17 16 16 10 15 16 15 10
7 8 6 8 8 4 3 5 3 5 3 4 1 4 6 5 5 2 3 6 6 6 7 7 9 11 17 17 16 14 15 18 8 17 24 23 22 22 21 19 19 16 10 13 11 13 12 13 10
1 1 7 7 4 2 5 9 4 6 9 2 6 3 6 5 11 3 5 4 3 6 7 7 8 7 5 8 13 13 9 5 5 19 16 22 20 19 18 19 17 14 11 11 13 13 14 14 10
5 2 5 4 9 10 10 6 6 9 12 12 9 6 3 6 10 5 7 4 5 7 7 6 6 6 5 12 11 10 10 10 11 14 15 19 18 17 18 20 18 16 11 9 9 9 13 11 10
2 3 5 9 4 3 10 5 16 13 10 16 7 8 6 5 6 5 6 7 11 9 3 4 6 6 7 14 9 11 11 14 16 16 20 17 19 17 18 22 20 16 11 6 6 8 10 12 11
7 4 8 6 6 1 6 6 16 13 12 14 6 6 9 4 6 5 3 4 8 6 5 4 6 7 6 7 7 7 11 14 14 13 13 13 21 21 22 24 20 16 12 9 9 10 7 6 6
6 7 13 13 13 9 6 4 5 7 21 19 14 7 7 7 1 3 1 4 4 2 4 6 7 6 7 8 10 11 11 12 15 15 14 13 19 23 24 24 22 19 15 13 9 10 6 5 4
6 7 10 13 8 1 6 5 5 2 6 24 16 11 7 8 7 3 3 3 2 3 4 5 8 8 9 10 12 11 10 11 12 13 17 12 17 15 27 28 19 20 18 15 11 9 6 4 5
4 7 7 6 8 7 3 8 6 8 6 9 14 17 12 8 12 7 1 4 4 3 8 7 8 10 12 13 14 16 14 13 16 16 14 12 11 11 16 28 28 23 21 17 12 8 6 3 2
7 5 5 11 6 14 11 14 13 6 9 8 12 21 15 10 9 8 8 8 6 5 7 6 9 10 12 12 16 16 16 17 15 15 14 13 12 14 22 21 21 24 21 17 16 10 6 4 1
6 6 9 10 9 8 15 4 1 1 7 5 9 5 2 12 6 7 10 10 5 3 5 3 5 7 9 13 18 19 17 19 16 16 14 17 14 15 15 19 16 20 21 17 15 9 8 4 2
10 12 8 8 9 10 12 5 2 4 4 3 4 4 3 5 5 4 6 13 4 6 8 8 7 6 6 7 13 15 15 18 17 15 15 17 19 16 18 19 18 20 21 23 21 10 12 7 7
16 21 20 14 8 7 19 8 5 1 5 5 3 3 6 7 8 7 4 4 3 3 7 8 6 8 7 7 9 13 15 16 17 16 15 15 20 23 20 17 17 18 19 20 21 18 12 9 9
15 14 26 22 20 12 17 15 10 3 4 8 7 5 12 11 6 10 8 10 6 1 4 12 8 11 10 11 9 10 14 14 17 15 16 16 15 17 19 16 17 16 17 17 19 17 15 13 11
17 9 25 19 14 13 14 14 11 5 3 5 6 12 17 21 11 10 13 13 13 8 3 9 9 11 12 12 12 11 15 16 16 18 20 17 16 15 15 16 16 16 16 16 18 15 13 13 14
12 8 7 12 20 18 13 9 8 8 4 9 0 4 11 16 17 13 13 14 13 8 11 12 11 12 16 15 11 14 17 19 17 18 19 18 16 16 17 18 18 17 17 17 18 17 16 15 16
4 14 9 8 11 16 11 14 19 12 11 8 6 1 4 8 12 10 11 10 11 11 11 14 15 14 14 21 14 16 20 20 20 19 18 18 18 19 18 19 21 21 20 20 20 18 18 18 16
7 11 16 13 13 14 14 12 18 12 14 14 6 3 6 3 3 5 7 8 10 10 10 12 13 14 19 18 20 21 21 21 22 21 20 20 21 21 21 21 22 23 25 26 23 22 21 20 19
9 12 17 19 17 16 16 20 14 5 6 9 7 4 3 4 3 5 7 6 7 7 7 9 12 19 19 18 19 22 23 22 22 21 23 23 23 23 24 23 24 24 24 25 26 26 24 23 22
Wind_Direction
139 141 144 160 134 118 169 65 36 319 322 8 38 24 53 133 206 212 210 197 205 216 218 213 216 211 214 235 230 307 217 149 130 139 136 129 118 108 105 116 109 102 109 112 100 86 72 67 66
149 164 184 181 147 136 171 99 351 69 77 47 110 111 337 197 218 188 207 210 210 210 225 246 228 212 210 196 203 165 172 181 179 174 161 129 120 118 118 118 117 124 119 104 90 78 70 67 65
161 211 244 224 189 199 128 25 352 15 40 79 6 358 3 339 250 203 214 224 217 210 192 241 177 194 194 200 197 196 150 165 165 169 160 138 151 138 135 131 143 129 119 101 85 75 75 72 70
218 241 269 190 194 177 145 127 9 34 54 130 191 341 54 226 296 234 217 210 168 179 191 204 212 194 194 190 192 202 199 168 164 178 160 148 154 136 149 150 143 129 118 99 82 82 86 81 79
236 242 255 209 171 159 113 137 238 27 43 60 182 98 66 80 289 257 222 175 157 177 193 177 177 182 178 177 190 190 167 133 156 165 158 151 157 156 168 163 143 138 112 100 95 92 83 84 85
246 262 249 210 163 172 294 89 124 79 50 209 102 109 83 112 135 113 193 184 174 177 196 201 187 194 200 188 184 186 181 172 167 172 170 162 169 173 175 170 142 131 118 106 97 90 85 83 87
258 227 266 204 184 194 193 222 158 144 62 48 102 103 98 88 94 172 189 174 166 180 202 208 208 207 213 210 196 197 210 183 179 186 186 179 180 186 186 165 154 137 125 117 98 83 74 79 84
330 43 54 33 193 243 196 186 55 55 118 304 102 151 57 87 109 126 187 158 104 162 181 205 178 189 204 210 208 219 225 201 165 188 202 232 202 184 195 172 160 144 135 122 93 84 74 82 64
315 26 43 45 59 37 273 276 340 356 72 200 128 130 95 74 121 111 96 110 181 137 124 175 171 178 188 189 196 208 207 192 203 184 199 225 237 193 203 176 163 151 154 124 102 87 86 85 76
358 44 24 34 15 11 305 267 292 310 55 177 110 136 128 97 120 113 136 140 133 137 119 139 138 159 185 203 206 214 212 207 204 196 203 207 216 200 192 182 171 162 162 129 106 108 95 83 82
321 54 54 15 30 25 156 263 191 310 158 257 106 135 127 140 113 151 146 115 123 118 141 126 129 123 252 245 219 215 210 225 230 213 209 203 190 183 185 183 176 172 168 146 146 111 117 107 94
333 19 4 15 40 34 55 324 335 254 280 232 156 109 137 142 147 103 73 96 118 148 146 135 114 189 236 97 176 185 166 180 183 178 186 186 178 179 183 189 175 182 181 161 170 125 121 116 102
257 342 360 343 34 53 358 5 333 311 210 215 118 146 142 130 99 137 139 119 135 131 131 129 120 89 129 99 105 136 152 153 124 161 158 177 184 181 190 201 187 188 186 169 190 148 140 120 119
265 337 316 7 35 348 315 331 315 218 226 247 281 276 145 113 104 184 117 94 134 138 131 136 146 189 115 110 120 133 148 140 121 173 175 177 172 181 191 202 192 186 190 184 203 167 160 133 136
278 244 331 326 12 10 339 329 313 195 224 243 274 274 248 97 102 119 119 111 162 168 150 167 175 177 127 132 120 125 121 114 143 171 188 174 177 186 194 198 192 196 201 206 219 183 150 150 141
289 280 326 10 350 346 346 294 232 257 232 233 247 272 253 100 96 111 129 150 129 138 152 174 186 184 153 123 132 145 136 140 154 167 170 187 187 188 199 200 197 201 197 213 219 184 190 162 140
251 272 315 354 350 104 7 350 216 240 231 195 223 271 252 136 85 107 120 176 175 169 193 201 211 197 198 175 177 188 164 162 165 175 177 197 188 196 191 205 198 205 194 202 209 200 180 139 138
280 285 355 335 306 272 284 252 204 223 213 226 229 196 201 252 170 47 288 195 156 171 170 210 214 205 210 205 206 210 182 181 163 184 201 189 192 207 200 207 201 204 200 202 201 204 167 167 92
230 18 356 22 88 232 258 253 260 51 220 218 188 200 252 214 231 97 234 87 91 153 220 182 199 214 205 212 206 188 178 178 166 182 203 187 200 221 208 195 197 203 208 207 200 206 154 218 69
222 68 337 325 310 226 256 5 359 313 287 205 197 190 222 209 223 132 220 156 141 165 203 182 176 197 209 212 213 214 213 201 184 177 189 197 190 173 189 189 196 205 214 210 202 185 171 228 42
191 138 307 285 316 305 4 15 15 290 319 278 252 211 218 204 199 152 202 184 186 178 190 198 180 166 204 211 207 214 206 206 192 173 179 178 186 159 182 177 188 206 210 202 216 217 175 175 212
221 202 263 273 271 349 357 356 66 167 329 317 356 360 261 221 227 185 205 205 152 239 235 232 240 206 189 207 202 201 199 202 200 176 181 174 178 176 196 211 200 209 219 215 218 220 213 208 188
214 217 221 258 315 317 320 354 232 225 84 201 284 52 33 273 236 242 261 254 153 330 215 222 243 254 216 214 216 211 202 209 201 190 184 179 181 192 197 199 215 215 213 220 230 236 242 223 230
277 218 233 218 226 260 276 323 246 289 111 85 183 280 209 231 258 280 304 143 219 16 265 243 198 226 223 207 223 224 218 219 212 198 189 192 191 192 199 209 209 217 221 224 230 226 239 239 244
343 234 226 239 238 241 265 260 276 179 121 155 211 238 203 202 254 281 262 272 257 266 52 227 181 239 242 227 233 230 227 222 223 218 207 202 213 207 205 215 216 219 230 232 235 233 242 251 250
323 270 232 230 220 245 258 280 292 129 15 178 263 217 212 193 245 250 246 239 244 229 222 167 212 237 242 238 230 233 222 223 220 224 223 213 213 222 215 223 228 226 230 240 254 253 242 245 256
288 229 175 214 224 233 272 305 261 269 255 212 127 106 216 228 228 221 234 239 252 240 235 235 247 241 222 225 227 233 229 221 219 222 226 228 224 217 224 226 231 233 233 237 242 245 243 239 238
321 186 190 173 238 273 276 306 315 328 304 275 254 343 82 180 192 198 228 238 252 252 232 238 249 230 233 218 228 234 236 226 222 222 223 225 227 225 217 232 233 232 236 238 243 243 246 243 246
327 261 222 207 228 260 276 306 296 324 328 184 163 5 59 78 170 195 206 224 240 252 241 242 251 246 235 233 212 235 232 235 231 223 223 224 223 227 226 218 229 233 237 239 241 240 240 245 257
255 259 248 227 227 242 273 278 303 339 313 275 242 320 346 317 208 177 175 208 228 231 239 258 255 249 248 237 237 234 234 233 237 231 230 225 233 228 227 223 226 232 236 237 240 241 249 249 253
Height
5896 5895 5895 5894 5897 5894 5893 5893 5893 5894 5894 5893 5891 5892 5893 5893 5894 5896 5895 5895 5896 5898 5899 5900 5901 5903 5906 5908 5909 5911 5911 5913 5915 5916 5916 5916 5917 5916 5915 5915 5914 5912 5911 5912 5912 5910 5906 5905 5904
5897 5897 5896 5897 5897 5894 5892 5892 5895 5894 5894 5893 5891 5891 5891 5892 5893 5893 5894 5894 5896 5897 5899 5900 5901 5904 5905 5907 5910 5911 5911 5912 5914 5914 5915 5916 5916 5915 5916 5915 5915 5913 5913 5914 5912 5910 5908 5908 5907
5897 5896 5896 5896 5896 5894 5892 5893 5892 5894 5895 5893 5891 5890 5890 5892 5892 5892 5893 5894 5896 5897 5897 5898 5899 5902 5905 5907 5910 5912 5912 5912 5913 5915 5916 5916 5917 5917 5916 5916 5916 5916 5915 5915 5914 5912 5912 5912 5910
5897 5896 5895 5893 5895 5893 5892 5893 5892 5894 5895 5893 5891 5891 5891 5891 5891 5892 5892 5894 5895 5895 5895 5896 5899 5902 5905 5907 5909 5911 5912 5913 5914 5915 5916 5916 5918 5918 5919 5917 5916 5917 5917 5916 5915 5914 5913 5913 5912
5894 5893 5893 5892 5892 5893 5892 5891 5893 5894 5894 5892 5892 5892 5891 5891 5891 5892 5893 5893 5894 5894 5896 5897 5899 5902 5904 5907 5909 5911 5913 5913 5915 5916 5916 5917 5919 5920 5919 5918 5917 5919 5919 5918 5916 5915 5915 5916 5914
5892 5892 5889 5885 5889 5889 5890 5893 5892 5894 5894 5892 5893 5893 5892 5892 5891 5891 5893 5894 5894 5894 5895 5897 5899 5901 5904 5907 5909 5911 5912 5913 5914 5916 5916 5917 5919 5920 5920 5919 5919 5920 5920 5920 5918 5920 5919 5918 5917
5888 5877 5888 5886 5890 5890 5891 5892 5892 5894 5892 5893 5893 5893 5894 5893 5891 5890 5892 5894 5896 5896 5897 5898 5900 5903 5906 5908 5909 5910 5911 5912 5914 5915 5915 5917 5919 5920 5920 5920 5921 5921 5921 5920 5921 5924 5923 5923 5922
5879 5876 5887 5887 5889 5888 5889 5891 5891 5894 5894 5892 5894 5893 5893 5893 5890 5890 5892 5895 5897 5899 5900 5900 5902 5903 5904 5906 5907 5908 5909 5911 5912 5912 5913 5916 5917 5919 5919 5920 5922 5922 5922 5923 5925 5926 5928 5927 5927
5891 5887 5887 5888 5886 5889 5889 5889 5891 5892 5895 5893 5895 5894 5894 5893 5891 5892 5894 5896 5898 5899 5899 5900 5901 5902 5903 5905 5905 5906 5908 5910 5911 5912 5913 5915 5917 5917 5919 5920 5922 5923 5923 5926 5927 5928 5933 5930 5929
5893 5889 5890 5889 5889 5885 5888 5888 5891 5891 5892 5894 5895 5896 5895 5893 5892 5894 5896 5897 5898 5900 5900 5900 5901 5903 5902 5903 5903 5904 5906 5907 5908 5910 5911 5913 5915 5916 5919 5923 5924 5924 5925 5929 5929 5930 5933 5932 5929
5889 5891 5894 5892 5890 5889 5889 5887 5887 5890 5891 5892 5893 5895 5893 5893 5892 5896 5896 5897 5897 5898 5900 5901 5901 5902 5902 5901 5900 5900 5902 5905 5905 5906 5907 5909 5913 5916 5919 5923 5925 5926 5926 5930 5930 5933 5933 5931 5929
5889 5891 5893 5895 5891 5888 5888 5888 5886 5890 5890 5890 5892 5893 5893 5892 5892 5895 5895 5897 5898 5899 5901 5902 5903 5903 5903 5900 5897 5899 5901 5903 5902 5902 5906 5911 5913 5915 5919 5924 5925 5926 5927 5929 5934 5935 5933 5933 5934
5890 5891 5890 5892 5889 5889 5888 5888 5888 5889 5890 5887 5890 5894 5894 5892 5892 5894 5896 5897 5897 5899 5901 5902 5903 5904 5903 5902 5899 5900 5902 5903 5905 5907 5910 5914 5915 5917 5921 5926 5927 5929 5931 5932 5935 5937 5934 5935 5936
5889 5888 5889 5889 5891 5891 5890 5886 5886 5888 5889 5890 5888 5888 5893 5892 5895 5895 5897 5897 5897 5899 5901 5902 5903 5905 5904 5903 5902 5903 5905 5906 5909 5913 5914 5919 5921 5921 5924 5927 5931 5931 5931 5935 5935 5938 5936 5934 5936
5889 5889 5889 5890 5891 5891 5890 5887 5886 5888 5890 5891 5891 5889 5890 5889 5894 5897 5897 5897 5896 5897 5900 5902 5903 5903 5904 5904 5904 5904 5907 5909 5910 5915 5918 5921 5923 5924 5925 5927 5932 5934 5933 5935 5938 5939 5938 5936 5938
5889 5888 5890 5891 5891 5892 5890 5887 5885 5886 5889 5889 5890 5889 5890 5891 5892 5897 5899 5899 5897 5897 5899 5901 5903 5903 5904 5903 5904 5906 5909 5911 5913 5916 5919 5922 5924 5926 5927 5927 5931 5934 5936 5937 5939 5939 5938 5940 5939
5887 5887 5886 5889 5890 5888 5886 5884 5883 5884 5883 5885 5889 5889 5888 5889 5892 5896 5896 5896 5899 5899 5900 5901 5903 5905 5903 5903 5904 5907 5911 5912 5914 5918 5921 5923 5925 5927 5927 5927 5930 5934 5936 5939 5938 5938 5938 5938 5937
5884 5884 5885 5887 5886 5886 5886 5884 5882 5880 5881 5884 5886 5888 5889 5889 5892 5892 5896 5897 5898 5897 5900 5901 5901 5903 5904 5904 5905 5906 5912 5914 5917 5920 5922 5923 5924 5926 5927 5928 5929 5933 5935 5937 5936 5937 5939 5937 5936
5881 5884 5884 5885 5883 5883 5885 5885 5881 5880 5880 5879 5882 5885 5887 5888 5889 5891 5895 5894 5897 5898 5899 5901 5901 5902 5903 5906 5906 5907 5909 5914 5916 5920 5922 5923 5924 5924 5925 5928 5931 5932 5934 5936 5937 5937 5938 5937 5940
5880 5883 5884 5883 5883 5883 5882 5882 5883 5881 5882 5881 5881 5881 5886 5888 5889 5890 5893 5893 5895 5900 5900 5901 5903 5902 5902 5903 5907 5908 5911 5912 5917 5919 5921 5920 5921 5923 5923 5924 5927 5931 5933 5936 5936 5938 5939 5940 5941
5880 5881 5883 5881 5882 5881 5879 5881 5885 5882 5881 5883 5883 5882 5885 5888 5885 5888 5893 5893 5893 5897 5901 5901 5901 5902 5902 5902 5903 5906 5911 5913 5915 5914 5917 5918 5919 5921 5923 5924 5927 5931 5933 5935 5936 5938 5939 5942 5944
5875 5879 5879 5878 5879 5879 5879 5882 5881 5883 5881 5880 5884 5882 5883 5886 5887 5886 5890 5891 5892 5894 5895 5896 5901 5901 5901 5903 5902 5902 5907 5909 5911 5914 5915 5917 5917 5919 5922 5924 5927 5929 5931 5933 5936 5937 5937 5941 5944
5873 5875 5878 5874 5877 5877 5878 5880 5880 5882 5883 5882 5883 5882 5886 5886 5887 5889 5889 5889 5889 5892 5893 5893 5895 5898 5898 5898 5900 5900 5902 5906 5910 5912 5913 5917 5919 5920 5922 5924 5926 5929 5931 5932 5934 5935 5932 5936 5941
5870 5872 5873 5873 5874 5875 5873 5879 5877 5879 5881 5882 5883 5883 5883 5885 5887 5886 5890 5891 5890 5891 5892 5891 5892 5896 5899 5898 5899 5900 5901 5903 5907 5910 5910 5914 5918 5921 5923 5922 5924 5926 5929 5930 5932 5933 5932 5933 5937
5866 5868 5868 5871 5873 5874 5872 5875 5874 5876 5879 5880 5880 5881 5880 5882 5884 5883 5886 5891 5890 5891 5891 5889 5891 5895 5897 5896 5897 5899 5900 5902 5903 5906 5908 5909 5913 5915 5917 5920 5923 5924 5924 5926 5928 5931 5933 5933 5935
5862 5863 5864 5867 5870 5870 5870 5872 5873 5874 5875 5877 5876 5875 5874 5878 5879 5880 5881 5885 5887 5889 5891 5891 5892 5893 5895 5894 5894 5896 5898 5900 5900 5902 5903 5905 5910 5913 5914 5917 5918 5921 5923 5924 5924 5928 5931 5933 5934
5859 5860 5863 5864 5867 5866 5868 5867 5869 5871 5873 5875 5875 5873 5873 5874 5874 5876 5878 5881 5883 5885 5888 5888 5889 5888 5890 5890 5891 5894 5896 5896 5897 5899 5899 5901 5905 5909 5911 5913 5916 5918 5920 5921 5922 5924 5927 5930 5931
5856 5859 5859 5860 5863 5865 5864 5863 5863 5865 5867 5872 5873 5868 5869 5871 5871 5873 5874 5876 5879 5883 5884 5883 5884 5883 5885 5887 5887 5890 5894 5893 5893 5895 5896 5898 5901 5904 5905 5909 5912 5915 5917 5917 5918 5920 5922 5924 5925
5855 5856 5857 5858 5860 5861 5861 5861 5860 5864 5864 5866 5871 5868 5865 5867 5868 5871 5873 5873 5877 5879 5879 5878 5876 5879 5883 5882 5883 5886 5888 5889 5888 5889 5892 5894 5897 5898 5899 5902 5906 5908 5911 5912 5914 5915 5917 5919 5920
5851 5854 5855 5854 5858 5859 5858 5858 5858 5860 5863 5865 5868 5867 5863 5863 5865 5867 5869 5871 5874 5874 5874 5872 5873 5876 5877 5877 5880 5881 5882 5884 5886 5885 5887 5890 5894 5895 5895 5896 5898 5901 5905 5907 5909 5911 5913 5913 5915